Wind_Speed
8 7 5 4 6 5 7 6 6 5 6 4 3 4 5 4 5 3 6 3 1 1 2 3 5 7 9 8 15 18 16 12 11 10 10 9 16 16 12 10 8 5 4
8 6 4 5 5 5 5 6 6 4 4 6 6 4 3 4 2 4 5 5 3 1 2 2 2 5 6 8 9 16 19 19 14 13 12 12 15 15 14 12 9 6 4
7 6 5 5 4 3 2 3 4 3 3 5 5 2 6 4 5 4 3 5 5 3 2 2 3 4 5 9 11 12 15 23 20 16 14 14 15 16 15 14 12 7 4
7 6 5 4 3 2 1 1 2 3 5 3 2 7 8 5 2 4 2 2 3 6 4 5 5 5 2 5 9 11 14 20 23 19 16 15 16 15 15 17 14 11 7
7 7 5 4 4 4 3 4 3 5 5 9 4 3 8 6 5 4 2 1 2 5 4 6 7 9 10 8 10 11 15 13 23 22 19 17 17 17 15 15 15 12 10
8 7 6 6 6 7 7 7 5 4 2 4 6 2 3 3 6 7 7 6 4 1 6 8 6 6 10 15 11 11 13 15 26 26 23 20 18 18 17 15 14 13 11
8 5 4 4 6 5 5 6 7 3 3 9 4 3 5 3 7 8 8 9 12 2 1 4 3 6 9 10 10 12 15 16 26 29 28 23 20 19 18 16 15 13 13
6 4 2 4 4 4 6 6 7 6 7 6 7 3 5 6 7 6 6 12 7 9 4 4 4 3 5 8 9 11 13 17 24 30 28 24 21 19 17 16 15 16 14
5 4 2 3 5 4 6 7 8 9 10 11 12 8 9 6 6 6 6 11 10 8 7 5 4 3 3 5 8 8 11 15 21 28 29 25 22 19 18 15 12 13 15
5 5 5 4 6 8 7 4 6 10 12 14 13 11 13 10 10 8 8 9 11 10 7 5 5 4 3 5 6 6 11 9 19 28 27 25 22 18 16 14 13 11 11
6 7 8 9 9 8 8 9 10 11 11 12 15 13 11 14 13 12 9 12 9 6 9 7 7 5 4 5 7 5 8 12 17 24 25 25 21 18 16 15 14 13 12
10 9 10 10 12 11 11 10 10 10 12 11 14 14 14 14 16 18 14 10 10 10 12 9 8 7 6 6 7 7 10 14 17 20 23 25 22 19 16 16 15 15 13
15 14 12 13 14 14 14 12 12 12 12 14 13 14 15 15 18 17 16 13 10 14 13 11 10 10 8 8 8 9 11 13 14 15 18 21 22 19 18 17 17 17 16
14 14 13 13 14 14 14 16 18 14 17 20 17 15 14 17 16 18 19 20 17 12 16 16 12 14 11 11 10 10 11 13 14 15 17 20 19 19 19 18 18 18 19
7 11 12 12 14 15 16 20 23 29 32 29 15 13 12 14 14 16 22 24 25 18 14 17 19 18 16 13 13 12 12 13 15 17 18 19 21 21 21 21 21 20 19
7 8 11 12 13 14 17 14 15 20 19 12 4 8 10 12 11 13 15 19 20 18 16 15 17 20 16 15 13 15 17 16 15 15 18 19 20 21 21 20 20 19 19
6 8 7 8 9 10 4 5 11 15 9 4 4 7 11 14 12 13 14 12 11 14 16 19 18 22 22 17 19 18 19 20 20 19 19 20 21 21 21 21 20 19 19
8 8 5 6 6 6 6 7 8 7 8 5 6 8 10 11 12 15 17 15 14 15 15 19 21 16 20 18 23 17 23 22 23 24 24 24 24 22 22 22 22 22 23
4 5 6 6 7 8 9 9 9 8 7 7 8 9 10 10 13 14 15 18 19 19 21 22 22 22 22 23 25 24 24 25 26 26 29 29 27 27 26 25 24 24 23
2 4 5 5 6 8 11 13 14 13 11 9 8 6 8 10 12 14 14 17 19 21 24 25 26 28 24 24 26 29 30 30 30 30 29 29 32 31 30 30 29 27 26
4 5 6 7 8 8 8 10 14 16 16 15 14 13 12 12 12 14 15 17 18 21 22 23 25 26 28 29 28 29 31 38 36 30 31 30 30 30 30 32 33 32 31
3 2 3 6 7 9 9 14 12 15 12 12 14 16 17 17 17 17 16 16 16 19 21 22 23 26 28 28 29 34 26 24 35 33 34 33 36 35 34 34 32 35 38
7 7 8 10 11 13 16 14 15 15 11 12 17 22 22 21 21 20 19 20 18 18 19 21 21 25 25 25 27 27 24 27 30 32 29 31 33 34 37 39 38 38 38
11 12 13 14 15 15 15 15 15 17 19 19 17 20 22 27 25 24 24 23 22 22 21 21 22 24 26 27 24 22 20 30 28 31 29 23 27 34 35 35 40 44 42
15 15 16 16 17 14 12 13 14 17 18 21 19 22 20 19 27 26 27 26 26 25 26 25 25 23 27 28 28 25 19 26 30 33 33 27 31 29 34 40 37 40 42
17 20 19 18 17 17 15 13 15 16 21 21 19 22 22 19 20 28 28 27 28 27 30 29 29 27 28 28 28 26 28 28 25 33 30 31 32 35 32 34 37 46 40
Wind_Direction
139 125 114 103 106 91 86 74 104 87 56 71 70 100 106 92 66 206 222 226 85 356 266 235 229 255 268 206 209 203 204 199 203 190 186 187 181 178 171 166 159 138 109
148 138 122 128 130 114 76 71 70 71 57 116 52 72 157 15 338 357 217 203 227 255 240 223 246 238 250 220 219 219 218 204 208 206 189 184 183 180 179 178 160 153 119
164 153 146 130 167 173 95 61 60 27 227 168 154 71 315 298 21 42 181 217 235 243 223 233 216 233 223 225 223 225 225 217 208 203 198 188 193 200 192 190 189 179 154
185 184 185 178 177 219 243 71 18 305 337 70 243 347 5 266 15 23 167 157 242 230 241 259 215 210 176 240 235 229 225 230 207 202 201 194 198 199 198 198 196 197 198
201 206 209 214 224 238 254 282 309 333 297 342 78 41 9 252 275 303 302 300 227 235 282 267 245 238 243 266 263 241 218 225 209 207 208 203 205 200 198 189 191 200 197
205 203 213 230 231 243 241 258 277 302 47 328 338 21 312 278 258 279 269 139 69 65 278 252 247 249 237 244 252 233 206 214 213 208 204 207 204 203 201 199 195 202 202
206 196 203 217 226 239 258 269 260 226 236 227 291 304 303 310 277 259 305 265 257 295 28 237 251 245 242 247 235 227 215 209 210 208 214 209 204 203 205 207 206 205 207
215 187 193 208 220 246 271 275 265 263 223 242 255 252 301 291 316 231 254 286 281 243 332 271 259 254 239 247 252 226 220 214 212 205 204 204 208 202 207 209 214 214 214
246 241 227 241 242 249 296 272 270 279 256 236 249 261 282 278 319 249 276 289 291 215 280 280 274 271 243 237 263 249 225 220 211 203 202 210 212 206 207 214 219 217 214
234 245 236 247 242 253 277 278 271 262 274 263 252 262 266 257 278 300 285 311 264 261 270 269 259 262 247 231 238 254 217 207 207 202 205 209 212 208 208 215 223 222 223
252 248 244 244 238 243 255 253 251 268 272 252 248 253 261 265 269 281 282 311 275 256 265 258 259 249 240 217 204 198 209 207 198 203 205 209 213 210 209 214 218 225 228
255 250 240 237 239 236 245 258 243 246 257 251 246 251 257 269 274 268 272 296 273 252 266 246 266 261 239 227 200 179 176 175 191 199 207 208 211 213 217 223 225 225 230
254 257 249 244 249 243 244 249 250 252 259 258 253 261 267 253 276 273 264 260 289 263 241 260 267 262 256 234 211 189 179 180 183 193 204 210 217 220 220 226 228 229 232
253 257 251 255 259 255 254 251 253 249 249 259 257 259 268 267 287 270 259 263 270 267 250 253 253 265 259 245 226 208 193 190 196 201 206 215 223 227 227 229 230 228 230
258 253 253 263 274 274 269 266 267 258 270 263 236 259 268 272 281 280 262 264 273 264 267 248 251 251 249 245 234 225 214 202 204 207 210 216 226 231 234 233 234 233 233
282 276 269 267 273 293 304 308 331 267 260 231 234 265 268 268 271 275 279 282 263 249 269 258 257 254 245 240 239 232 226 219 215 220 221 222 226 231 234 236 238 239 239
324 304 290 283 313 344 323 320 336 349 8 20 302 278 266 264 268 272 275 277 264 268 272 263 273 259 240 244 244 239 236 226 222 219 224 228 230 233 236 238 238 239 240
14 360 345 320 316 309 319 327 321 323 305 323 287 292 282 279 276 267 266 272 269 265 266 271 270 270 255 253 255 247 242 235 230 228 226 228 230 231 234 236 238 237 237
14 32 42 10 340 321 314 310 305 303 300 301 301 301 305 302 289 278 269 266 267 266 260 261 268 265 258 253 251 249 241 243 237 234 234 232 231 234 236 238 241 244 246
24 7 357 353 343 335 330 326 321 312 293 283 279 281 284 283 280 280 277 270 267 267 265 263 264 268 266 263 261 259 246 244 237 238 239 238 237 235 238 240 241 242 244
35 51 59 3 1 344 349 333 330 304 299 298 291 277 261 257 260 268 272 274 275 273 271 262 264 264 266 260 258 263 261 240 238 239 244 244 246 244 243 246 249 248 244
12 9 284 294 300 312 314 317 329 347 280 281 292 285 282 275 272 266 264 269 275 276 278 277 268 265 267 273 269 270 267 247 237 247 244 245 245 245 245 245 245 246 248
326 328 323 330 319 299 303 312 304 323 342 319 302 287 274 270 270 270 269 265 266 270 273 275 277 269 271 262 277 273 272 242 234 236 246 256 253 241 245 249 250 251 251
308 311 312 315 318 318 307 313 308 317 310 325 318 310 281 265 263 265 268 270 268 269 272 272 272 275 269 258 260 264 272 242 239 236 244 248 258 246 244 246 248 250 252
300 304 305 308 312 313 314 311 316 317 312 323 327 326 333 291 259 264 269 271 269 268 266 270 270 271 274 279 271 263 251 251 240 248 246 249 265 260 254 250 252 253 250
298 300 299 304 306 305 304 304 310 305 306 316 323 327 318 316 277 267 266 267 271 273 269 266 266 268 271 276 278 270 258 257 251 264 257 261 264 261 254 251 260 260 246
Height
5931 5934 5935 5936 5936 5936 5935 5935 5935 5936 5936 5937 5936 5936 5936 5937 5938 5938 5939 5940 5940 5940 5941 5941 5941 5942 5943 5941 5946 5948 5948 5951 5952 5953 5954 5956 5957 5959 5962 5963 5964 5966 5966
5931 5933 5935 5936 5937 5937 5936 5935 5936 5936 5936 5936 5936 5935 5934 5937 5938 5937 5937 5938 5939 5940 5941 5941 5941 5941 5942 5943 5945 5946 5948 5950 5951 5952 5954 5955 5958 5959 5961 5963 5965 5966 5967
5931 5933 5934 5935 5936 5937 5937 5936 5936 5935 5933 5932 5935 5932 5934 5936 5937 5937 5936 5937 5938 5939 5940 5940 5940 5941 5941 5942 5943 5945 5946 5948 5950 5951 5953 5955 5957 5960 5961 5963 5965 5966 5967
5931 5933 5934 5935 5936 5937 5937 5937 5936 5934 5932 5934 5932 5936 5935 5935 5936 5936 5936 5937 5937 5938 5938 5939 5939 5940 5940 5941 5942 5942 5944 5945 5947 5950 5952 5955 5957 5959 5961 5963 5965 5966 5967
5930 5931 5932 5934 5935 5935 5936 5936 5936 5934 5935 5935 5933 5934 5934 5934 5934 5935 5935 5935 5936 5936 5936 5936 5938 5938 5938 5939 5940 5940 5941 5943 5946 5948 5950 5954 5956 5958 5960 5962 5964 5966 5967
5929 5929 5930 5932 5933 5934 5934 5935 5935 5935 5935 5934 5934 5931 5933 5933 5933 5933 5933 5930 5934 5934 5934 5935 5936 5936 5936 5936 5937 5938 5939 5941 5944 5947 5949 5952 5955 5957 5960 5962 5963 5965 5967
5928 5928 5929 5929 5931 5932 5932 5933 5933 5933 5932 5932 5934 5932 5932 5932 5932 5932 5931 5928 5932 5932 5932 5934 5934 5935 5934 5934 5935 5935 5936 5937 5941 5945 5948 5950 5954 5956 5959 5961 5963 5964 5967
5927 5927 5928 5928 5929 5929 5930 5930 5931 5931 5931 5932 5932 5932 5932 5932 5931 5930 5930 5930 5926 5930 5931 5932 5932 5933 5933 5933 5932 5932 5933 5935 5938 5942 5945 5949 5952 5955 5958 5960 5962 5964 5966
5925 5925 5926 5926 5926 5927 5928 5927 5928 5929 5929 5930 5930 5931 5931 5931 5930 5929 5929 5929 5928 5928 5930 5930 5931 5931 5931 5931 5930 5930 5931 5933 5936 5939 5943 5947 5951 5954 5957 5959 5961 5963 5965
5923 5923 5924 5924 5925 5925 5926 5925 5926 5927 5927 5928 5928 5929 5929 5929 5929 5929 5928 5928 5927 5928 5928 5929 5929 5929 5930 5930 5929 5929 5930 5932 5934 5937 5941 5945 5949 5953 5956 5958 5960 5962 5964
5920 5921 5922 5922 5922 5923 5923 5923 5923 5923 5924 5924 5925 5927 5927 5928 5928 5927 5927 5927 5926 5926 5926 5926 5927 5928 5928 5929 5929 5929 5929 5930 5932 5936 5939 5943 5947 5951 5954 5956 5958 5960 5963
5916 5917 5918 5919 5919 5919 5919 5920 5919 5920 5920 5920 5921 5923 5924 5925 5925 5925 5925 5924 5924 5922 5923 5922 5924 5926 5927 5928 5928 5928 5929 5930 5932 5935 5938 5941 5945 5948 5951 5954 5956 5958 5960
5913 5914 5915 5915 5915 5915 5916 5917 5918 5916 5917 5918 5918 5919 5919 5920 5920 5921 5921 5921 5921 5921 5922 5920 5922 5923 5925 5926 5927 5928 5928 5930 5932 5934 5937 5940 5943 5946 5948 5950 5952 5955 5957
5911 5912 5912 5912 5912 5913 5914 5914 5913 5914 5914 5909 5914 5915 5916 5916 5917 5917 5918 5918 5919 5919 5918 5918 5919 5920 5921 5923 5925 5926 5927 5928 5930 5933 5936 5938 5940 5943 5945 5947 5949 5951 5953
5908 5909 5909 5909 5909 5908 5908 5909 5907 5906 5901 5902 5902 5911 5910 5912 5912 5913 5915 5916 5916 5916 5915 5915 5916 5917 5918 5919 5921 5923 5925 5926 5928 5929 5932 5935 5938 5940 5941 5944 5945 5948 5950
5905 5906 5906 5906 5906 5906 5905 5904 5901 5899 5898 5896 5901 5904 5906 5908 5907 5908 5910 5910 5911 5913 5913 5913 5912 5912 5914 5915 5917 5920 5921 5923 5925 5928 5930 5932 5934 5936 5938 5940 5942 5944 5946
5902 5902 5902 5902 5903 5902 5902 5901 5900 5897 5896 5897 5898 5900 5903 5903 5903 5904 5905 5906 5907 5909 5910 5910 5909 5909 5911 5911 5913 5915 5916 5919 5921 5923 5925 5927 5929 5931 5933 5935 5937 5940 5942
5901 5901 5900 5900 5900 5899 5899 5898 5898 5899 5898 5897 5899 5898 5899 5897 5898 5900 5902 5902 5903 5905 5906 5906 5906 5905 5907 5908 5909 5911 5911 5913 5915 5917 5919 5921 5923 5926 5928 5930 5932 5934 5935
5900 5900 5900 5900 5899 5898 5897 5897 5896 5895 5894 5894 5895 5894 5893 5894 5895 5896 5897 5898 5898 5900 5901 5901 5900 5901 5903 5903 5903 5905 5906 5907 5909 5910 5912 5914 5917 5920 5922 5924 5927 5929 5931
5898 5898 5898 5898 5898 5898 5897 5895 5894 5892 5892 5890 5889 5889 5889 5891 5892 5892 5892 5892 5893 5893 5894 5895 5895 5894 5896 5897 5899 5899 5900 5900 5901 5902 5905 5907 5909 5911 5914 5917 5920 5922 5925
5897 5897 5897 5896 5895 5895 5895 5894 5892 5890 5888 5888 5888 5887 5886 5885 5886 5886 5887 5888 5888 5887 5887 5887 5888 5889 5889 5889 5890 5889 5890 5890 5893 5895 5898 5901 5903 5905 5908 5910 5913 5915 5916
5896 5896 5895 5894 5894 5892 5891 5891 5890 5886 5883 5883 5884 5883 5883 5883 5883 5882 5881 5880 5881 5881 5882 5881 5881 5880 5881 5882 5883 5883 5881 5880 5886 5888 5890 5892 5894 5897 5898 5900 5903 5905 5907
5893 5892 5892 5892 5891 5889 5888 5886 5885 5883 5882 5880 5879 5877 5876 5876 5876 5877 5876 5875 5874 5873 5874 5875 5875 5874 5874 5875 5874 5873 5873 5876 5878 5880 5882 5884 5885 5888 5889 5891 5893 5895 5897
5890 5889 5888 5888 5887 5885 5884 5882 5881 5879 5877 5876 5873 5871 5869 5868 5869 5870 5870 5870 5870 5869 5868 5867 5867 5867 5867 5869 5866 5866 5866 5869 5870 5872 5874 5876 5876 5878 5878 5881 5882 5884 5886
5886 5886 5884 5884 5882 5880 5879 5878 5877 5875 5873 5871 5869 5866 5863 5861 5862 5863 5863 5864 5864 5863 5862 5861 5860 5859 5859 5860 5862 5862 5861 5860 5862 5864 5865 5866 5867 5867 5867 5870 5872 5873 5874
5881 5880 5879 5878 5877 5876 5875 5874 5873 5871 5869 5867 5865 5861 5859 5857 5856 5856 5855 5855 5856 5858 5855 5855 5854 5853 5852 5853 5854 5856 5855 5855 5855 5854 5856 5857 5859 5857 5858 5859 5859 5859 5860